This demonstration page uses our WeatherBlox Daily Observations layout. Learn more.

Left ArrowRight Arrow

38.88101, -77.10428

Hourly Observations for May 1, 2020

Temp ( °F °C ) Dew Point ( °F °C ) Humidity (%) Winds ( mph kmh ) Pressure ( in mb ) Visibility ( mi km ) Precip ( " mm )
12:43 am 00:43 Cloudy 58 14.4 56 13.3 93 93 VRB 3 6 29.74 1007 10 16.0934 0 0
12:52 am 00:52 Cloudy 57 13.9 53 11.7 87 87 NNW 12 19 29.73 1007 10 16.0934 0 0
1:05 am 01:05 Cloudy with Light Rain 56 13.3 52 11.1 87 87 NNW 7 11 29.73 1007 10 16.0934 0.001 0.001
1:30 am 01:30 Cloudy 55 12.8 53 11.7 93 93 NW 5 7 29.73 1007 10 16.0934 0.01 0.254
1:52 am 01:52 Cloudy with Light Rain 56 13.3 53 11.7 90 90 N 3 6 29.71 1006 10 16.0934 0.01 0.254
2:52 am 02:52 Cloudy 56 13.3 53 11.7 90 90 Calm 29.71 1006 10 16.0934 0.001 0.001
3:52 am 03:52 Mostly Cloudy 54 12.2 52 11.1 93 93 NNW 6 9 29.7 1006 10 16.0934 0.02 0.508
4:52 am 04:52 Cloudy 54 12.2 52 11.1 93 93 NNW 6 9 29.7 1006 10 16.0934 0 0
5:52 am 05:52 Mostly Cloudy 55 12.8 51 10.6 87 87 Calm 29.72 1006 10 16.0934 0.001 0.001
6:52 am 06:52 Cloudy 55 12.8 49 9.4 80 80 NW 12 19 29.74 1007 10 16.0934 0.001 0.001
7:52 am 07:52 Cloudy with Light Rain 54 12.2 48 8.9 80 80 NW 13 20 29.76 1008 10 16.0934 0.001 0.001
8:52 am 08:52 Cloudy with Light Rain 53 11.7 48 8.9 83 83 NW 14 22 29.78 1009 10 16.0934 0.01 0.254
9:52 am 09:52 Cloudy with Light Rain 54 12.2 49 9.4 83 83 NW 8 13 29.79 1009 10 16.0934 0.05 1.27
10:52 am 10:52 Mostly Cloudy 57 13.9 51 10.6 81 81 NNW 12 19 29.8 1009 10 16.0934 0.001 0.001
11:52 am 11:52 Mostly Cloudy 63 17.2 52 11.1 68 68 NNW 13 20 29.79 1009 10 16.0934 0 0
12:52 pm 12:52 Partly Cloudy 65 18.3 47 8.3 52 52 WNW 14 22 29.77 1008 10 16.0934 0 0
1:52 pm 13:52 Mostly Cloudy 65 18.3 46 7.8 51 51 N 16 26 29.76 1008 10 16.0934 0 0
2:52 pm 14:52 Mostly Cloudy 64 17.8 44 6.7 48 48 NW 15 24 29.78 1008 10 16.0934 0 0
3:52 pm 15:52 Partly Cloudy 66 18.9 45 7.2 47 47 NNW 14 22 29.78 1008 10 16.0934 0 0
4:52 pm 16:52 Mostly Cloudy 64 17.8 43 6.1 46 46 NW 16 26 29.8 1009 10 16.0934 0 0
5:52 pm 17:52 Mostly Cloudy 64 17.8 43 6.1 46 46 NW 13 20 29.81 1010 10 16.0934 0 0
6:52 pm 18:52 Partly Cloudy 64 17.8 43 6.1 46 46 WNW 12 19 29.83 1010 10 16.0934 0 0
7:52 pm 19:52 Partly Cloudy 61 16.1 42 5.6 50 50 NW 15 24 29.86 1011 10 16.0934 0 0
8:52 pm 20:52 Mostly Clear 60 15.6 42 5.6 52 52 NW 14 22 29.88 1012 10 16.0934 0 0
9:52 pm 21:52 Clear 59 15 44 6.7 58 58 NW 15 24 29.91 1013 10 16.0934 0 0
10:52 pm 22:52 Clear 58 14.4 44 6.7 60 60 NW 10 17 29.93 1014 10 16.0934 0 0
11:52 pm 23:52 Clear 56 13.3 45 7.2 67 67 NW 12 19 29.95 1014 10 16.0934 0 0

Powered by AerisWeather